GW3653 Weather Reports


Display with metric or nautical units.
time (UTC)temp
F
wind
direction
speed
MPH
gust
MPH
rain 1hr
in
rain 24hr
in
rain mn
in
humidity
%
barometer
mb
20260905111538 58 0.0 0.0 0.00 0.00 0.00 88 1015.4
20260905110519 58 0.0 0.0 0.00 0.00 0.00 88 1015.4
20260905105518 58 0.0 0.0 0.00 0.00 0.00 87 1015.2
20260905104518 58 0.0 0.0 0.00 0.00 0.00 86 1015.1
20260905103518 59 0.0 0.0 0.00 0.00 0.00 86 1014.9
20260905102518 59 0.0 0.0 0.00 0.00 0.00 85 1014.8
20260905101518 59 0.0 1.0 0.00 0.00 0.00 84 1014.6
20260905100518 60 0.0 2.0 0.00 0.00 0.00 83 1014.6
20260905095518 62 248 1.0 7.0 0.00 0.00 0.00 78 1014.6
20260905094518 63 0.0 0.0 0.00 0.00 0.00 74 1014.4
20260905093518 63 0.0 1.0 0.00 0.00 0.00 73 1014.3
20260905092518 64 0.0 0.0 0.00 0.00 0.00 73 1014.1
20260905091518 64 0.0 2.0 0.00 0.00 0.00 71 1013.9
20260905090518 65 0.0 0.0 0.00 0.00 0.00 70 1013.8
20260905085518 66 0.0 8.0 0.00 0.00 0.00 68 1013.5
20260905084518 67 0.0 2.0 0.00 0.00 0.00 67 1013.4
20260905083518 66 0.0 2.0 0.00 0.00 0.00 68 1013.4
20260905082518 66 0.0 2.0 0.00 0.00 0.00 67 1013.4
20260905081538 67 0.0 3.0 0.00 0.00 0.00 66 1013.2
20260905080518 67 0.0 5.0 0.00 0.00 0.00 65 1013.1
20260905075518 68 0.0 4.0 0.00 0.00 0.00 64 1013.2
20260905074518 69 0.0 5.0 0.00 0.00 0.00 63 1013.3
20260905073518 69 0.0 9.0 0.00 0.00 0.00 63 1013.2
20260905072538 68 248 1.0 10.0 0.00 0.00 0.00 63 1013.3
20260905071518 68 0.0 4.0 0.00 0.00 0.00 63 1013.4
20260905070518 68 0.0 5.0 0.00 0.00 0.00 63 1013.4
20260905065538 68 0.0 2.0 0.00 0.00 0.00 64 1013.6
20260905064517 68 0.0 1.0 0.00 0.00 0.00 63 1013.6
20260905063517 67 0.0 3.0 0.00 0.00 0.00 64 1013.8
20260905062517 67 0.0 1.0 0.00 0.00 0.00 65 1013.9
20260905061518 66 0.0 12.0 0.00 0.00 0.00 66 1014.0
20260905060518 66 0.0 5.0 0.00 0.00 0.00 66 1014.1
20260905055517 65 0.0 5.0 0.00 0.00 0.00 65 1014.3
20260905054517 66 0.0 3.0 0.00 0.00 0.00 65 1014.3
20260905053518 67 0.0 3.0 0.00 0.00 0.00 65 1014.3
20260905052518 67 0.0 2.0 0.00 0.00 0.00 63 1014.4
20260905051518 65 0.0 2.0 0.00 0.00 0.00 66 1014.5
20260905050517 65 0.0 3.0 0.00 0.00 0.00 66 1014.8
20260905045537 65 0.0 3.0 0.00 0.00 0.00 65 1014.8
20260905044518 65 0.0 4.0 0.00 0.00 0.00 65 1015.1
20260905043518 64 0.0 3.0 0.00 0.00 0.00 66 1015.2
20260905042517 65 270 2.0 12.0 0.00 0.00 0.00 64 1015.6
20260905041518 65 0.0 2.0 0.00 0.00 0.00 65 1015.6
20260905040517 64 0.0 2.0 0.00 0.00 0.00 66 1015.8
20260905035517 63 0.0 3.0 0.00 0.00 0.00 67 1016.0
20260905034517 63 0.0 5.0 0.00 0.00 0.00 67 1016.1
20260905033518 62 0.0 5.0 0.00 0.00 0.00 69 1016.3
20260905032517 62 0.0 1.0 0.00 0.00 0.00 70 1016.6
20260905031537 62 0.0 2.0 0.00 0.00 0.00 68 1016.8
20260905030517 62 0.0 3.0 0.00 0.00 0.00 68 1016.9
20260905025517 62 0.0 4.0 0.00 0.00 0.00 68 1017.0
20260905024517 62 0.0 2.0 0.00 0.00 0.00 68 1017.1
20260905023517 61 0.0 2.0 0.00 0.00 0.00 69 1017.3
20260905022517 61 0.0 2.0 0.00 0.00 0.00 69 1017.3
20260905021517 60 0.0 3.0 0.00 0.00 0.00 69 1017.6
20260905020538 59 0.0 5.0 0.00 0.00 0.00 71 1017.9
20260905015517 59 0.0 0.0 0.00 0.00 0.00 73 1018.1
20260905014517 58 0.0 1.0 0.00 0.00 0.00 72 1018.2
20260905013545 58 0.0 0.0 0.00 0.00 0.00 73 1018.4
20260905012517 57 0.0 0.0 0.00 0.00 0.00 74 1018.6
20260905011517 57 0.0 0.0 0.00 0.00 0.00 74 1018.7
20260905010517 56 0.0 0.0 0.00 0.00 0.00 74 1018.8
20260905005537 55 0.0 0.0 0.00 0.00 0.00 75 1019.0
20260905004519 55 0.0 0.0 0.00 0.00 0.00 75 1019.0
20260905003537 55 0.0 0.0 0.00 0.00 0.00 75 1019.0
20260905002519 54 0.0 0.0 0.00 0.00 0.00 75 1019.0
20260905001559 54 0.0 0.0 0.00 0.00 0.00 75 1019.0
20260905000519 54 0.0 0.0 0.00 0.00 0.00 75 1019.1
20260904235539 54 0.0 0.0 0.00 0.00 0.00 76 1019.0
20260904234519 54 0.0 0.0 0.00 0.00 0.00 75 1018.9
20260904233519 54 0.0 0.0 0.00 0.00 0.00 74 1018.8
20260904232519 54 0.0 3.0 0.00 0.00 0.00 74 1018.8
20260904231519 53 0.0 3.0 0.00 0.00 0.00 74 1018.7
20260904230519 53 0.0 1.0 0.00 0.00 0.00 75 1018.6
20260904225519 52 0.0 1.0 0.00 0.00 0.00 75 1018.4
20260904224518 52 0.0 0.0 0.00 0.00 0.00 75 1018.2
20260904223539 52 0.0 0.0 0.00 0.00 0.00 75 1018.2
20260904222518 52 0.0 1.0 0.00 0.00 0.00 75 1018.2
20260904221519 52 0.0 2.0 0.00 0.02 0.00 75 1018.2
20260904220518 52 0.0 0.0 0.00 0.02 0.00 76 1018.3
20260904215518 52 0.0 1.0 0.00 0.02 0.00 76 1018.4
20260904214559 53 0.0 0.0 0.00 0.02 0.00 76 1018.3
20260904213519 53 0.0 1.0 0.00 0.02 0.00 76 1018.3
20260904212519 52 0.0 1.0 0.00 0.02 0.00 76 1018.3
20260904211538 52 0.0 1.0 0.00 0.02 0.00 76 1018.2
20260904210519 52 0.0 0.0 0.00 0.02 0.00 76 1018.3
20260904205519 53 0.0 0.0 0.00 0.02 0.00 76 1018.2
20260904204518 53 0.0 0.0 0.00 0.04 0.00 76 1018.2
20260904203519 53 0.0 0.0 0.00 0.05 0.00 76 1018.3
20260904202519 53 0.0 0.0 0.00 0.05 0.00 76 1018.3
20260904201518 53 0.0 2.0 0.00 0.05 0.00 76 1018.3
20260904200519 53 0.0 0.0 0.00 0.05 0.00 76 1018.4
20260904195538 53 0.0 0.0 0.00 0.05 0.00 76 1018.2
20260904194559 53 0.0 0.0 0.00 0.05 0.00 77 1018.3
20260904193519 53 0.0 0.0 0.00 0.05 0.00 77 1018.4
20260904192518 52 0.0 0.0 0.00 0.05 0.00 77 1018.3
20260904191558 53 0.0 0.0 0.00 0.05 0.00 77 1018.4
20260904190519 53 0.0 0.0 0.00 0.05 0.00 77 1018.5
20260904185518 52 0.0 0.0 0.00 0.05 0.00 77 1018.6
20260904184539 52 0.0 0.0 0.00 0.05 0.00 77 1018.7
20260904183519 52 0.0 0.0 0.00 0.05 0.00 77 1018.7
20260904182518 53 0.0 0.0 0.00 0.05 0.00 77 1018.9
20260904181518 53 0.0 0.0 0.00 0.05 0.00 76 1019.0
20260904180519 53 0.0 0.0 0.00 0.05 0.00 76 1019.0
20260904175538 53 0.0 1.0 0.00 0.05 0.00 76 1019.1
20260904174518 53 0.0 0.0 0.00 0.05 0.00 76 1019.3
20260904173519 53 0.0 0.0 0.00 0.05 0.00 76 1019.4
20260904172558 53 0.0 0.0 0.00 0.06 0.00 76 1019.5
20260904171518 52 0.0 1.0 0.00 0.06 0.00 76 1019.5
20260904170519 53 0.0 1.0 0.00 0.06 0.00 76 1019.4
20260904165518 52 0.0 1.0 0.00 0.06 0.00 76 1019.4
20260904164518 52 0.0 1.0 0.00 0.06 0.00 76 1019.4
20260904163519 52 0.0 0.0 0.00 0.06 0.00 77 1019.5
20260904162518 52 0.0 0.0 0.00 0.06 0.00 76 1019.5
20260904161518 52 0.0 0.0 0.00 0.06 0.00 76 1019.6
20260904160519 52 0.0 0.0 0.00 0.06 0.00 76 1019.7
20260904155518 52 0.0 0.0 0.00 0.06 0.06 76 1019.8
20260904154518 52 0.0 0.0 0.00 0.06 0.06 76 1019.8
20260904153538 52 0.0 0.0 0.00 0.06 0.06 76 1020.0
20260904152518 52 0.0 0.0 0.00 0.06 0.06 75 1020.1
20260904151518 52 0.0 1.0 0.00 0.06 0.06 75 1020.2
20260904150519 52 0.0 2.0 0.00 0.06 0.06 75 1020.3
20260904145518 52 0.0 1.0 0.00 0.06 0.06 75 1020.3
20260904144518 52 0.0 0.0 0.00 0.06 0.06 75 1020.4
20260904143518 52 0.0 0.0 0.00 0.06 0.06 75 1020.6
20260904142518 52 0.0 0.0 0.00 0.06 0.06 74 1020.6
20260904141518 52 0.0 0.0 0.00 0.06 0.06 74 1020.8
20260904140518 52 0.0 0.0 0.00 0.06 0.06 74 1020.7
20260904135558 52 0.0 0.0 0.00 0.06 0.06 74 1020.7
20260904134518 52 0.0 0.0 0.00 0.06 0.06 73 1020.8
20260904133518 52 0.0 0.0 0.00 0.06 0.06 73 1020.9
20260904132518 52 0.0 0.0 0.00 0.06 0.06 73 1021.0
20260904131518 53 0.0 0.0 0.00 0.06 0.06 73 1020.8
20260904130518 53 0.0 0.0 0.00 0.06 0.06 73 1020.8
20260904125518 53 0.0 0.0 0.00 0.06 0.06 73 1021.0
20260904124518 53 0.0 0.0 0.00 0.06 0.06 73 1020.9
20260904123518 53 0.0 1.0 0.00 0.06 0.06 73 1020.9
20260904122518 53 0.0 1.0 0.00 0.06 0.06 74 1020.7
20260904121518 53 0.0 0.0 0.00 0.06 0.06 74 1020.8
20260904120519 53 0.0 0.0 0.00 0.06 0.06 74 1020.8
20260904115518 53 0.0 1.0 0.00 0.06 0.06 75 1020.8
20260904114518 53 0.0 1.0 0.00 0.06 0.06 75 1020.7
20260904113519 53 0.0 0.0 0.00 0.06 0.06 75 1020.7
20260904112538 53 0.0 2.0 0.00 0.06 0.06 74 1020.7